Guam Agana, GU

7:15 PM ChST on October 15, 2019 (GMT +1000)
Guam International

Weather History for PGUM - August, 2019

Change the Weather History Date:

Monday, August 19, 2019

  Actual Average Record
Temperature  
Mean Temperature 82 °F -  
Max Temperature 86 °F 84 °F 89 °F (2003)
Min Temperature 77 °F 75 °F 73 °F (2007)
Cooling Degree Days 16    
Growing Degree Days 32 (Base 50)    
Moisture  
Dew Point 75 °F    
Average Humidity 85    
Maximum Humidity 94    
Minimum Humidity 68    
Precipitation  
Precipitation 0.08 in - - ()
Sea Level Pressure  
Sea Level Pressure 29.77 in    
Wind  
Wind Speed 6 mph (SSE)    
Max Wind Speed 12 mph    
Max Gust Speed -    
Visibility 9 miles    
Events Rain    
Averages and records for this station are not official NWS values.
T = Trace of Precipitation, MM = Missing Value Source: NWS Daily Summary

Daily Weather History Graph

Daily Weather History Graph

Search for Another Location

Airport or City:

Astronomy

Aug. 19, 2019 Rise Set
Actual Time 6:08 AM ChST 6:40 PM ChST
Civil Twilight 5:46 AM ChST 7:02 PM ChST
Nautical Twilight 5:20 AM ChST 7:28 PM ChST
Astronomical Twilight 4:54 AM ChST 7:53 PM ChST
Moon 9:14 PM ChST (8/19) 8:48 AM ChST (8/19)
Length of Visible Light 13h 15m
Length of Day
12h 32m
Waning Gibbous, 89% of the Moon is Illuminated
Aug 19
Waning Gibbous
Aug 24
Last Quarter
Aug 30
New
Sep 6
First Quarter
Sep 14
Full

Hourly Weather History & Observations

Time (ChST) Temp. Heat Index Dew Point Humidity Pressure Visibility Wind Dir Wind Speed Gust Speed Precip Events Conditions
12:16 AM 80.1 °F 85.4 °F 75.9 °F 87% 29.79 in 10.0 mi SE 6.9 mph - N/A   Mostly Cloudy
12:43 AM 80.1 °F 85.4 °F 75.9 °F 87% 29.78 in 10.0 mi SE 6.9 mph - N/A   Mostly Cloudy
12:51 AM 80.6 °F 86.2 °F 75.2 °F 84% 29.78 in 10.0 mi SSE 5.8 mph - N/A   Mostly Cloudy
12:54 AM 80.1 °F 85.4 °F 75.9 °F 87% 29.76 in 10.0 mi SE 5.8 mph - N/A   Mostly Cloudy
1:09 AM 80.1 °F 85.4 °F 75.9 °F 87% 29.78 in 10.0 mi SSE 5.8 mph - N/A   Mostly Cloudy
1:22 AM 80.1 °F 85.4 °F 75.9 °F 87% 29.78 in 4.0 mi South 11.5 mph - 0.00 in Rain Heavy Rain
1:26 AM 79.0 °F - 75.0 °F 88% 29.78 in 3.0 mi SSE 8.1 mph - 0.02 in Rain Heavy Rain
1:33 AM 78.1 °F - 73.9 °F 87% 29.78 in 3.0 mi SE 4.6 mph - 0.06 in Rain Heavy Rain
1:47 AM 79.0 °F - 75.0 °F 88% 29.77 in 10.0 mi SE 4.6 mph - 0.07 in   Mostly Cloudy
1:54 AM 79.0 °F - 75.0 °F 88% 29.74 in 10.0 mi SSE 5.8 mph - 0.07 in   Mostly Cloudy
2:02 AM 79.0 °F - 75.0 °F 88% 29.76 in 10.0 mi SSE 5.8 mph - N/A   Mostly Cloudy
2:54 AM 79.0 °F - 75.9 °F 90% 29.73 in 10.0 mi SE 6.9 mph - 0.01 in   Mostly Cloudy
3:33 AM 80.1 °F 85.4 °F 75.9 °F 87% 29.75 in 10.0 mi SSE 3.5 mph - 0.00 in Rain Light Rain
3:43 AM 80.1 °F 85.4 °F 75.9 °F 87% 29.75 in 10.0 mi SSE 8.1 mph - 0.00 in Rain Light Rain
3:54 AM 79.0 °F - 75.0 °F 88% 29.73 in 10.0 mi SSE 4.6 mph - 0.00 in   Scattered Clouds
4:26 AM 79.0 °F - 75.9 °F 90% 29.76 in 10.0 mi SSW 4.6 mph - N/A   Mostly Cloudy
4:38 AM 79.0 °F - 75.9 °F 90% 29.76 in 10.0 mi South 4.6 mph - N/A   Mostly Cloudy
4:54 AM 79.0 °F - 75.9 °F 90% 29.74 in 10.0 mi South 4.6 mph - N/A   Partly Cloudy
5:54 AM 79.0 °F - 75.9 °F 90% 29.74 in 10.0 mi Calm Calm - 0.00 in   Partly Cloudy
6:54 AM 79.0 °F - 75.9 °F 90% 29.76 in 10.0 mi ESE 3.5 mph - N/A   Clear
7:54 AM 80.1 °F 85.8 °F 77.0 °F 90% 29.77 in 10.0 mi South 5.8 mph - N/A   Partly Cloudy
8:20 AM 80.1 °F 85.4 °F 75.9 °F 87% 29.80 in 10.0 mi South 6.9 mph - N/A   Mostly Cloudy
8:38 AM 81.0 °F 87.9 °F 77.0 °F 88% 29.80 in 10.0 mi South 4.6 mph - N/A   Scattered Clouds
8:54 AM 81.0 °F 87.3 °F 75.9 °F 85% 29.78 in 10.0 mi South 5.8 mph - N/A   Partly Cloudy
9:54 AM 82.9 °F 90.2 °F 75.0 °F 77% 29.78 in 10.0 mi South 8.1 mph - N/A   Partly Cloudy
10:43 AM 84.9 °F 93.3 °F 75.0 °F 72% 29.80 in 10.0 mi ESE 5.8 mph - N/A   Mostly Cloudy
10:54 AM 84.9 °F 92.1 °F 73.9 °F 69% 29.78 in 10.0 mi SE 5.8 mph - N/A   Scattered Clouds
11:54 AM 84.9 °F 92.1 °F 73.9 °F 69% 29.77 in 10.0 mi SE 4.6 mph - N/A   Clear
12:54 PM 86.0 °F 95.1 °F 75.0 °F 70% 29.75 in 10.0 mi ESE 5.8 mph - N/A   Clear
1:54 PM 84.9 °F 93.3 °F 75.0 °F 72% 29.74 in 10.0 mi South 11.5 mph - N/A   Mostly Cloudy
2:54 PM 84.0 °F 91.9 °F 75.0 °F 74% 29.73 in 9.0 mi ESE 8.1 mph - 0.00 in Rain Light Rain
3:54 PM 84.0 °F 91.9 °F 75.0 °F 74% 29.71 in 10.0 mi SSE 6.9 mph - 0.00 in   Scattered Clouds
4:11 PM 84.0 °F 91.9 °F 75.0 °F 74% 29.74 in 10.0 mi Variable 6.9 mph - N/A   Mostly Cloudy
4:54 PM 80.1 °F 85.8 °F 77.0 °F 90% 29.74 in 3.0 mi SSE 8.1 mph - 0.04 in Rain Heavy Rain
4:56 PM 80.1 °F 85.8 °F 77.0 °F 90% 29.77 in 2.5 mi South 6.9 mph - 0.01 in Rain Heavy Rain
5:07 PM 78.1 °F - 75.9 °F 93% 29.77 in 5.0 mi SE 6.9 mph - 0.03 in Rain Light Rain
5:13 PM 77.0 °F - 73.9 °F 90% 29.77 in 2.5 mi SE 4.6 mph - 0.04 in Rain Rain
5:20 PM 77.0 °F - 73.9 °F 90% 29.77 in 3.0 mi ESE 4.6 mph - 0.05 in Rain Light Rain
5:54 PM 79.0 °F - 75.0 °F 88% 29.76 in 10.0 mi East 6.9 mph - 0.05 in Rain Light Rain
6:54 PM 79.0 °F - 75.9 °F 90% 29.76 in 10.0 mi SSE 3.5 mph - 0.00 in   Scattered Clouds
7:51 PM 78.8 °F - 75.2 °F 89% 29.78 in 10.0 mi Calm Calm - N/A   Partly Cloudy
7:54 PM 79.0 °F - 75.9 °F 90% 29.76 in 10.0 mi SSE 3.5 mph - N/A   Partly Cloudy
8:26 PM 79.0 °F - 75.9 °F 90% 29.80 in 10.0 mi East 4.6 mph - N/A   Mostly Cloudy
8:43 PM 79.0 °F - 75.9 °F 90% 29.80 in 10.0 mi Calm Calm - N/A   Mostly Cloudy
8:54 PM 79.0 °F - 75.9 °F 90% 29.78 in 10.0 mi Variable 3.5 mph - N/A   Mostly Cloudy
9:43 PM 79.0 °F - 77.0 °F 94% 29.82 in 10.0 mi South 3.5 mph - N/A   Scattered Clouds
9:54 PM 79.0 °F - 75.9 °F 90% 29.80 in 10.0 mi South 3.5 mph - N/A   Partly Cloudy
10:54 PM 79.0 °F - 75.0 °F 88% 29.81 in 10.0 mi SSW 3.5 mph - N/A   Partly Cloudy
11:54 PM 78.1 °F - 75.0 °F 90% 29.81 in 10.0 mi SSW 3.5 mph - N/A   Partly Cloudy